Overview Statistics Trail Chart Weather Telemetry Raw packets
 

This is the latest recevied weather packets stored in our database for station/object K1RFS. If no packets are shown the sender has not sent any weather packets the latest 10 day(s).

<< 65 66 67 68 69 70 71 >>
Time Temp. Humidity Pressure Rain* Wind** Luminosity Snow
1788230310 15.56° C 77% 1004.9 hPa 0 mm - 0 W/m² -
1788230006 15.56° C 76% 1004.8 hPa 0 mm - 0 W/m² -
1788229701 15.56° C 76% 1004.6 hPa 0 mm - 0 W/m² -
1788229397 15.56° C 79% 1004.8 hPa 0 mm - 0 W/m² -
1788229092 15.56° C 79% 1004.7 hPa 0 mm - 0 W/m² -
1788228788 16.11° C 78% 1004.8 hPa 0 mm - 0 W/m² -
1788228482 16.67° C 76% 1005.2 hPa 0 mm - 1 W/m² -
1788228177 16.11° C 76% 1005 hPa 0 mm - 1 W/m² -
1788227872 16.11° C 76% 1005 hPa 0 mm - 1 W/m² -
1788227568 16.11° C 77% 1005.2 hPa 0 mm - 2 W/m² -
1788227267 16.11° C 78% 1005.4 hPa 0 mm - 4 W/m² -
1788226963 16.11° C 77% 1005.5 hPa 0 mm - 6 W/m² -
1788226658 16.11° C 77% 1005.7 hPa 0 mm - 8 W/m² -
1788226354 16.11° C 77% 1005.7 hPa 0 mm - 12 W/m² -
1788226049 16.11° C 77% 1006.1 hPa 0 mm - 14 W/m² -
1788225744 16.11° C 78% 1005.7 hPa 0 mm - 13 W/m² -
1788225440 16.11° C 77% 1006 hPa 0 mm - 14 W/m² -
1788225140 16.11° C 77% 1006.1 hPa 0 mm - 15 W/m² -
1788224834 16.11° C 76% 1006.1 hPa 0 mm - 16 W/m² -
1788224529 16.11° C 76% 1006.1 hPa 0 mm - 18 W/m² -
1788224223 16.11° C 74% 1006.1 hPa 0 mm - 19 W/m² -
1788223918 16.67° C 73% 1006.2 hPa 0 mm - 19 W/m² -
1788223617 16.67° C 71% 1006.2 hPa 0 mm - 21 W/m² -
1788223312 16.67° C 70% 1006.1 hPa 0 mm - 20 W/m² -
1788223012 16.11° C 74% 1006.3 hPa 0 mm - 18 W/m² -

* Rain latest hour (hover to see other rain measurements)
** Current wind speed in m/s (hover to see current wind gust speed)